Simultaneous Nadir Overpasses (SNOs) Predictions

Prediction of SNOs between NOAA-15 and METOP-C Satellite Orbit:

Table of predicted SNOs for the next 14.0 days since TLE Epoch: 1/25/2020
Index Date (NOAA-15) Time (NOAA-15) Lat,Lon (NOAA-15) SZA (NOAA-15 ) Date (METOP-C) Time (METOP-C) Lat,Lon (METOP-C) SZA (METOP-C ) Distance(km) Time Diff (sec)
1 01/31/2020 02:45:33 -80.85, -5.86 80.29 01/31/2020 02:44:22 -80.82, -7.63 80.48 31.48 71
2 01/31/2020 03:36:04 80.88, 160.77 99.67 01/31/2020 03:34:58 80.87, 160.77 99.64 1.22 66
3 01/31/2020 04:26:37 -80.87, -31.63 80.33 01/31/2020 04:25:39 -80.89, -31.64 80.34 1.62 58
4 01/31/2020 05:17:06 80.87, 135.73 99.66 01/31/2020 05:16:18 80.89, 135.69 99.66 1.58 48
5 01/31/2020 06:07:40 -80.88, -57.04 80.36 01/31/2020 06:07:00 -80.88, -57.07 80.37 0.60 40
6 01/31/2020 06:58:09 80.88, 110.32 99.64 01/31/2020 06:57:39 80.88, 110.26 99.62 1.04 30
7 01/31/2020 07:48:43 -80.89, -82.45 80.38 01/31/2020 07:48:21 -80.88, -82.50 80.40 1.42 22
8 01/31/2020 08:39:12 80.89, 84.91 99.61 01/31/2020 08:39:00 80.88, 84.83 99.59 1.91 12
9 01/31/2020 09:29:45 -80.88,-107.50 80.39 01/31/2020 09:29:41 -80.89,-107.57 80.39 1.98 4
10 01/31/2020 10:20:14 80.88, 59.87 99.60 01/31/2020 10:20:20 80.89, 59.76 99.61 2.37 6
11 01/31/2020 11:10:48 -80.88,-132.91 80.42 01/31/2020 11:11:02 -80.89,-133.00 80.42 1.62 14
12 01/31/2020 12:01:17 80.88, 34.46 99.58 01/31/2020 12:01:41 80.89, 34.33 99.57 2.33 24
13 01/31/2020 12:51:51 -80.89,-158.32 80.44 01/31/2020 12:52:23 -80.88,-158.43 80.45 2.28 32
14 01/31/2020 13:42:20 80.89, 9.05 99.55 01/31/2020 13:43:02 80.88, 8.90 99.54 3.03 42
15 01/31/2020 14:32:53 -80.88, 176.63 80.46 01/31/2020 14:33:43 -80.89, 176.50 80.44 2.73 50
16 01/31/2020 15:23:23 80.90, -16.35 99.53 01/31/2020 15:24:22 80.89, -16.18 99.56 3.20 59
17 01/31/2020 16:13:56 -80.89, 151.22 80.48 01/31/2020 16:15:04 -80.89, 151.07 80.47 2.67 68




NCC Satellite Simultaneous Nadir Overpasses (SNOs) Prediction Service
